• In Germany
  • List of Countries
  • For 7 days
  • Water Temperature
  • Satellite Maps
  • Weather Map
  • Weather Widgets
  • user-avatar
    Login

    Hourly Weather Fier

    Today, 24 November, Friday

    Time Temperature Precipitation Wind Pressure Humidity
    00:00 +11°C° 0 mm 1 mps 765 mmHg 63%
    01:00 +11°C° 0 mm 1 mps 765 mmHg 63%
    02:00 +11°C° 0 mm 1 mps 765 mmHg 62%
    03:00 +11°C° 0 mm 1 mps 765 mmHg 62%
    04:00 +10°C° 0 mm 1 mps 765 mmHg 62%
    05:00 +10°C° 0 mm 1 mps 765 mmHg 63%
    06:00 +10°C° 0 mm 1 mps 765 mmHg 63%
    07:00 +11°C° 0 mm 1 mps 765 mmHg 60%
    08:00 +12°C° 0 mm 1 mps 765 mmHg 56%
    09:00 +14°C° 0 mm 1 mps 765 mmHg 53%
    10:00 +16°C° 0 mm 1 mps 765 mmHg 49%
    11:00 +16°C° 0 mm 1 mps 764 mmHg 51%
    12:00 +17°C° 0 mm 2 mps 764 mmHg 52%
    13:00 +17°C° 0 mm 2 mps 764 mmHg 53%
    14:00 +16°C° 0 mm 2 mps 764 mmHg 59%
    15:00 +15°C° 0 mm 2 mps 764 mmHg 65%
    16:00 +14°C° 0 mm 2 mps 764 mmHg 72%
    17:00 +13°C° 0 mm 2 mps 764 mmHg 75%
    18:00 +12°C° 0 mm 2 mps 764 mmHg 79%
    19:00 +10°C° 0 mm 2 mps 764 mmHg 83%
    20:00 +11°C° 0 mm 1 mps 764 mmHg 83%
    21:00 +11°C° 0 mm 1 mps 765 mmHg 83%
    22:00 +11°C° 0 mm 1 mps 765 mmHg 82%
    23:00 +10°C° 0 mm 1 mps 765 mmHg 81%

    Tomorrow, 25 November, Saturday

    Time Temperature Precipitation Wind Pressure Humidity
    00:00 +10°C° 0 mm 1 mps 765 mmHg 80%
    01:00 +10°C° 0 mm 1 mps 765 mmHg 79%
    02:00 +10°C° 0 mm 1 mps 764 mmHg 78%
    03:00 +10°C° 0 mm 1 mps 764 mmHg 76%
    04:00 +10°C° 0 mm 1 mps 764 mmHg 75%
    05:00 +10°C° 0 mm 1 mps 764 mmHg 74%
    06:00 +10°C° 0 mm 1 mps 764 mmHg 73%
    07:00 +10°C° 0 mm 1 mps 764 mmHg 71%
    08:00 +12°C° 0 mm 1 mps 764 mmHg 65%
    09:00 +13°C° 0 mm 1 mps 764 mmHg 58%
    10:00 +15°C° 0 mm 1 mps 764 mmHg 51%
    11:00 +16°C° 0 mm 1 mps 763 mmHg 49%
    12:00 +16°C° 0 mm 1 mps 763 mmHg 47%
    13:00 +18°C° 0 mm 1 mps 763 mmHg 46%
    14:00 +16°C° 0 mm 1 mps 762 mmHg 52%
    15:00 +15°C° 0 mm 1 mps 762 mmHg 58%
    16:00 +14°C° 0 mm 1 mps 762 mmHg 64%
    17:00 +13°C° 0 mm 2 mps 762 mmHg 67%
    18:00 +12°C° 0 mm 2 mps 763 mmHg 70%
    19:00 +12°C° 0 mm 2 mps 763 mmHg 73%
    20:00 +10°C° 0 mm 3 mps 763 mmHg 74%
    21:00 +10°C° 0 mm 3 mps 763 mmHg 75%
    22:00 +10°C° 0 mm 3 mps 763 mmHg 76%
    23:00 +10°C° 0 mm 4 mps 763 mmHg 77%

    Day after tomorrow, 26 November, Sunday

    Time Temperature Precipitation Wind Pressure Humidity
    00:00 +8°C° 0 mm 4 mps 763 mmHg 78%
    01:00 +8°C° 0 mm 4 mps 763 mmHg 78%
    02:00 +8°C° 0 mm 4 mps 762 mmHg 78%
    03:00 +9°C° 0 mm 5 mps 762 mmHg 77%
    04:00 +9°C° 0 mm 5 mps 762 mmHg 77%
    05:00 +9°C° 0 mm 5 mps 762 mmHg 77%
    06:00 +8°C° 0 mm 5 mps 762 mmHg 77%
    07:00 +8°C° 0 mm 6 mps 761 mmHg 76%
    08:00 +10°C° 0 mm 6 mps 761 mmHg 72%
    09:00 +13°C° 0 mm 6 mps 761 mmHg 67%
    10:00 +15°C° 0 mm 6 mps 761 mmHg 62%
    11:00 +16°C° 0.1 mm 7 mps 760 mmHg 62%
    12:00 +17°C° 0.1 mm 7 mps 760 mmHg 62%
    13:00 +17°C° 0.1 mm 7 mps 759 mmHg 62%
    14:00 +16°C° 0.4 mm 7 mps 759 mmHg 67%
    15:00 +16°C° 0.4 mm 7 mps 758 mmHg 72%
    16:00 +15°C° 0.4 mm 6 mps 758 mmHg 77%
    17:00 +14°C° 1 mm 6 mps 758 mmHg 80%
    18:00 +14°C° 1 mm 6 mps 758 mmHg 83%
    19:00 +13°C° 1 mm 6 mps 758 mmHg 86%
    20:00 +13°C° 1 mm 6 mps 758 mmHg 87%
    21:00 +13°C° 1 mm 6 mps 758 mmHg 88%
    22:00 +13°C° 1 mm 6 mps 758 mmHg 89%
    23:00 +12°C° 0.4 mm 5 mps 758 mmHg 89%

    27 November, Monday

    Time Temperature Precipitation Wind Pressure Humidity
    00:00 +12°C° 0.4 mm 4 mps 757 mmHg 89%
    01:00 +12°C° 0.4 mm 3 mps 757 mmHg 89%
    02:00 +13°C° 0.7 mm 2 mps 757 mmHg 90%
    03:00 +13°C° 0.7 mm 2 mps 756 mmHg 91%
    04:00 +12°C° 0.7 mm 1 mps 756 mmHg 93%
    05:00 +12°C° 0.5 mm 1 mps 756 mmHg 93%
    06:00 +12°C° 0.5 mm 2 mps 756 mmHg 93%
    07:00 +11°C° 0.5 mm 3 mps 756 mmHg 93%
    08:00 +12°C° 0.2 mm 3 mps 756 mmHg 88%
    09:00 +12°C° 0.2 mm 3 mps 757 mmHg 82%
    10:00 +13°C° 0.2 mm 4 mps 757 mmHg 77%
    11:00 +13°C° 0.2 mm 5 mps 757 mmHg 76%
    12:00 +13°C° 0.2 mm 5 mps 757 mmHg 75%
    13:00 +13°C° 0.2 mm 6 mps 757 mmHg 73%
    14:00 +11°C° 0 mm 6 mps 757 mmHg 74%
    15:00 +11°C° 0 mm 6 mps 757 mmHg 74%
    16:00 +11°C° 0 mm 7 mps 758 mmHg 75%
    17:00 +10°C° 0 mm 6 mps 758 mmHg 75%
    18:00 +9°C° 0 mm 6 mps 758 mmHg 76%
    19:00 +9°C° 0 mm 6 mps 758 mmHg 77%
    20:00 +9°C° 0 mm 6 mps 758 mmHg 77%
    21:00 +8°C° 0 mm 5 mps 759 mmHg 77%
    22:00 +8°C° 0 mm 5 mps 759 mmHg 77%
    23:00 +7°C° 0 mm 5 mps 759 mmHg 78%

    28 November, Tuesday

    Time Temperature Precipitation Wind Pressure Humidity
    00:00 +7°C° 0 mm 5 mps 759 mmHg 78%
    01:00 +7°C° 0 mm 5 mps 759 mmHg 79%
    02:00 +6°C° 0 mm 5 mps 759 mmHg 79%
    03:00 +6°C° 0 mm 5 mps 759 mmHg 80%
    04:00 +6°C° 0 mm 5 mps 759 mmHg 80%
    05:00 +6°C° 0 mm 4 mps 759 mmHg 81%
    06:00 +5°C° 0 mm 4 mps 759 mmHg 81%
    07:00 +5°C° 0 mm 4 mps 760 mmHg 81%
    08:00 +6°C° 0 mm 4 mps 760 mmHg 75%
    09:00 +7°C° 0 mm 4 mps 760 mmHg 69%
    10:00 +8°C° 0 mm 4 mps 760 mmHg 64%
    11:00 +10°C° 0 mm 4 mps 760 mmHg 62%
    12:00 +10°C° 0 mm 4 mps 759 mmHg 60%
    13:00 +11°C° 0 mm 4 mps 759 mmHg 58%
    14:00 +10°C° 0 mm 4 mps 759 mmHg 62%
    15:00 +10°C° 0 mm 4 mps 759 mmHg 66%
    16:00 +8°C° 0 mm 4 mps 759 mmHg 70%
    17:00 +8°C° 0 mm 3 mps 759 mmHg 73%
    18:00 +7°C° 0 mm 3 mps 760 mmHg 75%
    19:00 +7°C° 0 mm 2 mps 760 mmHg 78%
    20:00 +6°C° 0 mm 2 mps 760 mmHg 78%
    21:00 +6°C° 0 mm 2 mps 760 mmHg 79%
    22:00 +6°C° 0 mm 2 mps 760 mmHg 79%
    23:00 +6°C° 0 mm 2 mps 761 mmHg 78%

    29 November, Wednesday

    Time Temperature Precipitation Wind Pressure Humidity
    00:00 +6°C° 0 mm 2 mps 761 mmHg 78%
    01:00 +5°C° 0 mm 2 mps 761 mmHg 77%
    02:00 +5°C° 0 mm 2 mps 761 mmHg 76%
    03:00 +5°C° 0 mm 2 mps 761 mmHg 74%
    04:00 +5°C° 0 mm 2 mps 761 mmHg 73%
    05:00 +5°C° 0 mm 2 mps 761 mmHg 73%
    06:00 +5°C° 0 mm 2 mps 761 mmHg 73%
    07:00 +5°C° 0 mm 2 mps 761 mmHg 73%
    08:00 +7°C° 0 mm 2 mps 761 mmHg 69%
    09:00 +9°C° 0 mm 3 mps 761 mmHg 66%
    10:00 +10°C° 0 mm 3 mps 761 mmHg 62%
    11:00 +11°C° 0 mm 3 mps 761 mmHg 60%
    12:00 +11°C° 0 mm 4 mps 761 mmHg 58%
    13:00 +12°C° 0 mm 4 mps 760 mmHg 57%
    14:00 +11°C° 0 mm 4 mps 760 mmHg 60%
    15:00 +9°C° 0 mm 5 mps 760 mmHg 64%
    16:00 +8°C° 0 mm 5 mps 760 mmHg 68%
    17:00 +8°C° 0 mm 5 mps 760 mmHg 70%
    18:00 +7°C° 0 mm 6 mps 760 mmHg 73%
    19:00 +7°C° 0 mm 6 mps 760 mmHg 75%
    20:00 +6°C° 0 mm 7 mps 760 mmHg 75%
    21:00 +5°C° 0 mm 7 mps 760 mmHg 75%
    22:00 +5°C° 0 mm 7 mps 760 mmHg 76%
    23:00 +6°C° 0 mm 8 mps 760 mmHg 76%
    Show more